This demonstration page uses our WeatherBlox Daily Observations layout. Learn more.

Hourly Observations for June 10, 2015

Temp ( °F °C ) Dew Point ( °F °C ) Humidity (%) Winds ( mph kmh ) Pressure ( in mb ) Visibility ( mi km ) Precip ( " mm )
12:15 am 00:15 Clear 75 23.8 57 13.8 54 54 SSW 5 7 29.71 1006 10 16.0934 0 0
12:35 am 00:35 Clear 75 24 55 13 50 50 SSW 5 7 29.71 1006 10 16.0934 0 0
12:55 am 00:55 Clear 75 23.9 55 12.6 49 49 SSW 6 9 29.71 1006 10 16.0934 0 0
1:15 am 01:15 Clear 76 24.2 54 12.2 47 47 SSW 7 11 29.71 1006 10 16.0934 0 0
1:35 am 01:35 Clear 74 23.2 55 12.7 52 52 SSW 6 9 29.71 1006 10 16.0934 0 0
1:55 am 01:55 Clear 74 23.3 55 12.7 51 51 SW 6 9 29.68 1005 10 16.0934 0 0
2:15 am 02:15 Clear 74 23.2 55 12.8 52 52 SSW 7 11 29.68 1005 10 16.0934 0 0
2:35 am 02:35 Clear 74 23.1 55 13 53 53 SW 6 9 29.68 1005 10 16.0934 0 0
2:55 am 02:55 Clear 73 22.5 56 13.2 56 56 SW 5 7 29.68 1005 10 16.0934 0 0
3:15 am 03:15 Clear 72 22.3 56 13.3 57 57 SW 5 7 29.68 1005 10 16.0934 0 0
3:35 am 03:35 Clear 72 22.2 56 13.2 57 57 WSW 7 11 29.68 1005 10 16.0934 0 0
3:55 am 03:55 Clear 74 23.6 56 13.5 53 53 WSW 6 9 29.68 1005 10 16.0934 0 0
4:15 am 04:15 Clear 73 22.5 56 13.6 57 57 WSW 6 9 29.68 1005 10 16.0934 0 0
4:35 am 04:35 Clear 73 23 57 13.7 56 56 WSW 8 13 29.68 1005 10 16.0934 0 0
4:55 am 04:55 Clear 73 23 57 14 57 57 WSW 6 9 29.68 1005 10 16.0934 0 0
5:15 am 05:15 Clear 72 22.2 57 14.1 60 60 WSW 5 7 29.68 1005 10 16.0934 0 0
5:35 am 05:35 Clear 71 21.6 57 14.1 62 62 WSW 3 6 29.68 1005 10 16.0934 0 0
5:55 am 05:55 Clear 68 20.1 58 14.4 70 70 Calm 29.71 1006 10 16.0934 0 0
6:15 am 06:15 Sunny 69 20.6 58 14.2 67 67 SSW 3 6 29.68 1005 10 16.0934 0 0
6:35 am 06:35 Sunny 71 21.6 57 14 62 62 SSW 6 9 29.71 1006 10 16.0934 0 0
6:55 am 06:55 Sunny 70 21 58 14.4 66 66 SSW 5 7 29.74 1007 10 16.0934 0 0
7:15 am 07:15 Sunny 71 21.9 59 14.8 64 64 SSW 3 6 29.71 1006 10 16.0934 0 0
7:35 am 07:35 Sunny 73 23 60 15.5 63 63 SSW 3 6 29.71 1006 10 16.0934 0 0
7:55 am 07:55 Sunny 75 24.1 60 15.8 60 60 Calm 29.71 1006 10 16.0934 0 0
8:15 am 08:15 Sunny 77 25.2 62 16.6 59 59 Calm 29.68 1005 10 16.0934 0 0
8:35 am 08:35 Sunny 79 26 62 16.5 56 56 Calm 29.68 1005 10 16.0934 0 0
8:55 am 08:55 Sunny 81 27.1 63 17 54 54 SSW 3 6 29.68 1005 10 16.0934 0 0
9:15 am 09:15 Sunny 83 28.1 62 16.9 51 51 Calm 29.68 1005 10 16.0934 0 0
9:35 am 09:35 Sunny 84 29.1 62 16.7 47 47 Calm 29.62 1003 10 16.0934 0 0
9:55 am 09:55 Sunny 86 30.1 62 16.9 45 45 S 3 6 29.62 1003 10 16.0934 0 0
10:15 am 10:15 Sunny 88 31.2 62 16.8 42 42 SSW 6 9 29.62 1003 10 16.0934 0 0
10:35 am 10:35 Sunny 89 31.9 61 16.2 39 39 SSW 10 17 29.62 1003 10 16.0934 0 0
10:55 am 10:55 Sunny 90 32.2 59 14.9 35 35 S 12 19 29.62 1003 10 16.0934 0 0
11:15 am 11:15 Sunny 90 32.3 59 15 35 35 S 15 24 29.62 1003 10 16.0934 0 0
11:35 am 11:35 Sunny 91 32.7 59 15 34 34 S 14 22 29.59 1002 10 16.0934 0 0
11:55 am 11:55 Sunny 91 32.6 59 15.2 35 35 S 15 24 29.59 1002 10 16.0934 0 0
12:15 pm 12:15 Sunny 90 32.1 59 15.1 36 36 S 14 22 29.62 1003 10 16.0934 0 0
12:35 pm 12:35 Sunny 90 32.1 60 15.5 37 37 S 17 28 29.62 1003 10 16.0934 0 0
12:55 pm 12:55 Sunny 91 32.6 54 12.2 29 29 S 13 20 29.59 1002 10 16.0934 0 0
1:15 pm 13:15 Sunny 91 32.8 55 13 30 30 S 14 22 29.59 1002 10 16.0934 0 0
1:35 pm 13:35 Sunny 91 32.5 53 11.8 28 28 SSE 10 17 29.59 1002 10 16.0934 0 0
1:55 pm 13:55 Sunny 90 32 61 16 38 38 SSE 15 24 29.62 1003 10 16.0934 0 0
2:15 pm 14:15 Sunny 92 33.3 60 15.3 34 34 S 13 20 29.59 1002 10 16.0934 0 0
2:35 pm 14:35 Sunny 92 33.4 58 14.3 32 32 S 15 24 29.56 1001 10 16.0934 0 0
2:55 pm 14:55 Sunny 93 33.7 58 14.2 31 31 S 17 28 29.56 1001 10 16.0934 0 0
3:15 pm 15:15 Sunny 90 32.3 59 15 35 35 S 16 26 29.56 1001 10 16.0934 0 0
3:35 pm 15:35 Sunny 89 31.7 59 14.9 36 36 S 17 28 29.53 1000 10 16.0934 0 0
3:55 pm 15:55 Sunny 89 31.5 60 15.4 38 38 SE 15 24 29.53 1000 10 16.0934 0 0
4:15 pm 16:15 Sunny 88 31.2 60 15.6 39 39 SE 14 22 29.53 1000 10 16.0934 0 0
4:35 pm 16:35 Sunny 88 30.9 61 16.3 41 41 SE 9 15 29.53 1000 10 16.0934 0 0
4:55 pm 16:55 Sunny 87 30.8 62 16.8 43 43 SE 12 19 29.53 1000 10 16.0934 0 0
5:15 pm 17:15 Sunny with Nearby Thunderstorms 86 30.2 62 16.9 45 45 SE 12 19 29.53 1000 10 16.0934 0 0
5:35 pm 17:35 Sunny 86 30 63 17.3 46 46 SE 10 17 29.53 1000 10 16.0934 0 0
5:55 pm 17:55 Sunny 85 29.5 63 17 47 47 SE 10 17 29.53 1000 10 16.0934 0 0
6:15 pm 18:15 Partly Cloudy with Nearby Thunderstorms 84 28.7 61 16.2 47 47 ESE 10 17 29.5 999 10 16.0934 0 0
6:35 pm 18:35 Mostly Cloudy with Light Rain 82 27.9 63 17 52 52 ESE 9 15 29.5 999 10 16.0934 0 0
6:55 pm 18:55 Cloudy with Nearby Thunderstorms 77 24.9 63 17.4 63 63 N 10 17 29.53 1000 10 16.0934 0 0
7:15 pm 19:15 Cloudy with Nearby Thunderstorms 73 22.9 63 17.1 70 70 NNW 22 35 29.62 1003 10 16.0934 0 0
7:35 pm 19:35 Mostly Cloudy 71 21.5 63 17.1 76 76 NE 10 17 29.62 1003 10 16.0934 0 0
7:55 pm 19:55 Partly Cloudy with Nearby Thunderstorms 70 21 62 16.8 77 77 NE 18 30 29.62 1003 10 16.0934 0 0
8:15 pm 20:15 Mostly Cloudy 68 20.2 63 17 82 82 N 15 24 29.65 1004 10 16.0934 0 0
8:35 pm 20:35 Cloudy with Nearby Thunderstorms 67 19.7 63 17 85 85 NNW 15 24 29.68 1005 10 16.0934 0.01 0.254
8:55 pm 20:55 Cloudy with Thunderstorms 68 19.9 63 17.3 85 85 WNW 14 22 29.71 1006 10 16.0934 0.05 1.27
9:15 pm 21:15 Cloudy 66 18.7 63 17.4 92 92 Calm 29.74 1007 2.5 4.02335 0.57 14.478
9:35 pm 21:35 Cloudy with Rain 65 18.3 63 17.1 93 93 NNE 15 24 29.71 1006 7 11.26538 0.7 17.78
9:55 pm 21:55 Partly Cloudy 65 18.5 63 17 91 91 NE 16 26 29.68 1005 10 16.0934 0.71 18.034
10:15 pm 22:15 Mostly Cloudy with Nearby Thunderstorms 65 18.3 63 17 92 92 NE 17 28 29.68 1005 10 16.0934 0 0
10:35 pm 22:35 Mostly Cloudy 65 18.3 63 17.2 93 93 ENE 14 22 29.68 1005 10 16.0934 0 0
10:55 pm 22:55 Cloudy with Nearby Thunderstorms 65 18.6 63 17.4 93 93 ENE 17 28 29.68 1005 10 16.0934 0 0
11:15 pm 23:15 Cloudy with Light Rain 65 18.5 64 17.5 94 94 ENE 16 26 29.65 1004 10 16.0934 0.01 0.254
11:35 pm 23:35 Partly Cloudy 65 18.5 64 17.5 94 94 ENE 17 28 29.65 1004 10 16.0934 0.01 0.254
11:55 pm 23:55 Mostly Cloudy 65 18.5 63 17.4 93 93 NE 16 26 29.65 1004 10 16.0934 0.01 0.254

Powered by AerisWeather